This is the latest recevied weather packets stored in our database for station/object N5TSS. If no packets are shown the sender has not sent any weather packets the latest 10 day(s).
| Time | Temp. | Humidity | Pressure | Rain* | Wind** | Luminosity | Snow |
|---|---|---|---|---|---|---|---|
| 1777928462 | 27.22° C | 56% | 1012.9 hPa | 0 mm | - | - | - |
| 1777928160 | 27.22° C | 55% | 1012.9 hPa | 0 mm | - | - | - |
| 1777927858 | 27.78° C | 55% | 1012.9 hPa | 0 mm | - | - | - |
| 1777927556 | 27.22° C | 56% | 1012.9 hPa | 0 mm | - | - | - |
| 1777927255 | 27.22° C | 56% | 1013.2 hPa | 0 mm | - | - | - |
| 1777926953 | 26.67° C | 56% | 1013.2 hPa | 0 mm | - | - | - |
| 1777926650 | 26.67° C | 57% | 1013.5 hPa | 0 mm | - | - | - |
| 1777926344 | 26.67° C | 57% | 1013.2 hPa | 0 mm | - | - | - |
| 1777926042 | 27.22° C | 55% | 1013.5 hPa | 0 mm | - | - | - |
| 1777925739 | 27.22° C | 55% | 1013.5 hPa | 0 mm | - | - | - |
| 1777925437 | 27.22° C | 54% | 1013.9 hPa | 0 mm | - | - | - |
| 1777925133 | 26.67° C | 55% | 1013.5 hPa | 0 mm | - | - | - |
| 1777924830 | 26.11° C | 55% | 1013.5 hPa | 0 mm | - | - | - |
| 1777924526 | 26.67° C | 56% | 1013.9 hPa | 0 mm | - | - | - |
| 1777924223 | 27.22° C | 54% | 1013.9 hPa | 0 mm | - | - | - |
| 1777923919 | 26.11° C | 56% | 1013.9 hPa | 0 mm | - | - | - |
| 1777923615 | 26.11° C | 57% | 1014.2 hPa | 0 mm | - | - | - |
| 1777923312 | 26.11° C | 57% | 1014.2 hPa | 0 mm | - | - | - |
| 1777923011 | 26.67° C | 55% | 1014.6 hPa | 0 mm | - | - | - |
| 1777922709 | 27.22° C | 54% | 1014.2 hPa | 0 mm | - | - | - |
| 1777922407 | 26.67° C | 55% | 1014.2 hPa | 0 mm | - | - | - |
| 1777922104 | 26.11° C | 56% | 1014.6 hPa | 0 mm | - | - | - |
| 1777921799 | 26.11° C | 55% | 1014.6 hPa | 0 mm | - | - | - |
| 1777921495 | 26.67° C | 54% | 1014.6 hPa | 0 mm | - | - | - |
| 1777921192 | 26.67° C | 54% | 1014.6 hPa | 0 mm | - | - | - |
* Rain latest hour (hover to see other rain measurements)
** Current wind speed in m/s (hover to see current wind gust speed)